P/2012 S2 ( La Sagra )

Japanese version
Home page
Updated on August 8, 2015

---------------------------------------------------------------------

* Profile

Discovery Date September 23, 2012
Magnitude 18.0 mag
Discoverer La Sagra Sky Survey

* Pictures

* Orbital Elements

Epoch 2012 Aug. 21.0 TT = JDT 2456160.5
T 2012 Aug. 18.87539 TT                                 MPC
q   1.3711892            (2000.0)            P               Q
n   0.10568229     Peri.  312.07314     +0.99006985     -0.07555223
a   4.4306548      Node    52.60236     +0.12347733     +0.87047458
e   0.6905222      Incl.    8.58183     -0.06719412     +0.48638037
P   9.33
From 357 observations 2012 Sept. 23-Dec. 18, mean residual 0".4.

* Magnitudes Graph

        m1 = 16.2 + 5 log d + 10.0 log r(t - 100)

---------------------------------------------------------------------

The orbital elements are published on M.P.E.C. 2013-C52.
The magnitudes graphs are made with Comet for Windows.

---------------------------------------------------------------------

Copyright(C) Seiichi Yoshida (comet@aerith.net). All rights reserved.